User: anonymous   Login
Location: Unspecified
(0.0000°N, 0.0000°E)
Time: 13:01:30
(UTC+02:00)
Language:

Cosmos 1953 Rocket - Orbit

View from above orbital plane
View from above orbital plane
View from above satellite
View from above satellite

Ground track
Ground track

The orbit data is extracted from the following two-line orbital elements,

1 19211U 88050B   18144.76696611  .00000058  00000-0  41643-5 0  9991
2 19211  82.5280 242.9360 0023343  73.3301  40.1480 14.83007065617419
Epoch (UTC): 24 May 2018 18:24:25
Eccentricity: 0.0023343
inclination: 82.5280°
perigee height: 603 km
apogee height: 636 km
right ascension of ascending node: 242.9360°
argument of perigee: 73.3301°
revolutions per day: 14.83007065
mean anomaly at epoch: 40.1480°
orbit number at epoch: 61741

The dashed part of the orbit path shows where the satellite is in the earth's shadow,  

DLR